Погода в Раздолинске

Россия / Красноярский край     58°25′03″N   94°37′14″E
темп.,
°C
ветер,
м/с
пор.,
м/с
влажн.,
%
обл.,
%
осадки,
мм/ч
давл.,
гПа
погр.,
м
6 марта, сб
сб601:00−4юз6119596 1.6 10111019
04:00−8зюз61292100 0.5 1012887
07:00−9юз41196100 0.9 1012631
10:00−6юз5993100 0.7 10131007
13:00−5юз5991100 1.3 1012964
16:00−5ююз5994100 0.7 1011867
19:00−5ююз51196100 1.8 10091039
22:00−5юз61495100 1.9 10061352
7 марта, вс
вс701:00−5юз61295100 3.8 10051196
04:00−6юз61195100 1.0 10041055
07:00−6юз61395100 2.1 10041221
10:00−6юз71493100 1.1 10051203
13:00−6зюз71289100 1.6 10061361
16:00−7зюз71286100 0.4 10081404
19:00−10зюз61291100 0.6 10111025
22:00−11з61391100 0.1 10131004
8 марта, пн
пн801:00−12з51292100 0.3 1015879
04:00−12з41194100 0.1 1018754
07:00−14зюз31095100 0.2 1021443
10:00−13зюз3695100 0.1 1022338
13:00−10ююз3592100 0.1 1022528
16:00−9ю3691100 0.1 1019615
19:00−10юв41095100 0.1 1015482
22:00−10ююв61495100 0.2 1010609
9 марта, вт
вт901:00−7ю51595100 2.5 1004678
04:00−3юз81695100 1.8 10021450
07:00−6зюз81692100 2.4 10051500
10:00−10зюз81689100 0.2 10111131
13:00−9зюз81588100 0.4 10131432
16:00−9з71387100 0.3 10161423
19:00−11зюз41193100 0.6 10191020
22:00−12зюз41294100 0.1 1021593
10 марта, ср
ср1001:00−15юз2798100 0.2 1020200
04:00−16ю23100100 0.1 101966
07:00−17ююв22100100 0.1 101838
10:00−12ю389499 0.0 1015337
13:00−7ююз499499 0.2 1011590
16:00−4юз61194100 0.6 10101144
19:00−6зюз41095100 1.0 1011831
22:00−9юз2698100 0.1 1013131